{"data":{"norad_id":53592,"epoch":"2026-09-20T04:24:34.739424Z","epoch_age_seconds":105563,"freshness":"FRESH","line1":"1 53592U 22104E   26263.18373541  .00000127  00000+0  14534-4 0  9994","line2":"2 53592  53.1597  75.1327 0001132  91.7439 268.3693 15.35400998225528","mean_motion":15.35400998,"eccentricity":0.0001132,"inclination_deg":53.1597,"raan_deg":75.1327,"arg_perigee_deg":91.7439,"mean_anomaly_deg":268.3693,"bstar":1.4534e-5,"rev_number":22552,"period_min":93.786574443792,"perigee_km":458.9556331874,"apogee_km":460.50372620368,"semimajor_km":6837.8666796955,"source":"CELESTRAK","updated_at":"2026-09-21T09:00:32.935416Z"}}